Weather History for Klamath Falls, OR

Change the Weather History Date:

Sunday, April 21, 2013

  Actual Average Record
Temperature  
Mean Temperature 45 °F 44 °F  
Max Temperature 65 °F 58 °F 82 °F (2009)
Min Temperature 25 °F 31 °F 20 °F (1995)
Degree Days  
Heating Degree Days 20 21  
Month to date heating degree days 479 485  
Since 1 July heating degree days 5921 6147  
Cooling Degree Days 0 0  
Month to date cooling degree days 0 0  
Year to date cooling degree days 0 0  
Moisture  
Dew Point 32 °F    
Average Humidity 63    
Maximum Humidity 92    
Minimum Humidity 31    
Precipitation  
Precipitation 0.00 in 0.05 in 0.44 in (1997)
Month to date precipitation 1.05 0.85  
Year to date precipitation 2.53 5.89  
Sea Level Pressure  
Sea Level Pressure 30.17 in    
Wind  
Wind Speed 6 mph (NW)    
Max Wind Speed 26 mph    
Max Gust Speed 30 mph    
Visibility 10 miles    
Events      
T = Trace of Precipitation, MM = Missing Value Source: NWS Daily Summary

Daily Weather History Graph

Daily Weather History Graph

Search for Another Location

Airport:

Trip Planner

Search our weather history database for the weather conditions in past years. The results will help you decide how hot, cold, wet, or windy it might be!

Date:

Astronomy

Apr. 21, 2013 Rise Set
Actual Time 6:16 AM PDT 7:55 PM PDT
Civil Twilight 5:46 AM PDT 8:25 PM PDT
Nautical Twilight 5:11 AM PDT 9:01 PM PDT
Astronomical Twilight 4:32 AM PDT 9:39 PM PDT
Moon 3:42 PM PDT (4/21) 3:46 AM PDT (4/21)
Length of Visible Light 14h 38m
Length of Day
13h 38m
Waxing Gibbous, 81% of the Moon is Illuminated
Apr 21
Waxing Gibbous
Apr 25
Full
May 2
Last Quarter
May 9
New
May 17
First Quarter

Hourly Weather History & Observations

Time (PDT) Temp. Windchill Dew Point Humidity Pressure Visibility Wind Dir Wind Speed Gust Speed Precip Events Conditions
12:53 AM 36.0 °F - 30.9 °F 82% 30.19 in 10.0 mi Calm Calm - N/A   Clear
1:53 AM 32.0 °F - 28.9 °F 88% 30.18 in 10.0 mi Calm Calm - N/A   Clear
2:53 AM 32.0 °F - 30.0 °F 92% 30.17 in 10.0 mi Calm Calm - N/A   Clear
3:53 AM 30.9 °F - 28.0 °F 89% 30.17 in 10.0 mi Calm Calm - N/A   Clear
4:53 AM 28.0 °F - 25.0 °F 88% 30.19 in 10.0 mi Calm Calm - N/A   Clear
5:53 AM 26.1 °F - 25.0 °F 96% 30.18 in 10.0 mi Calm Calm - N/A   Clear
6:53 AM 28.0 °F - 26.1 °F 92% 30.21 in 10.0 mi Calm Calm - N/A   Clear
7:53 AM 37.9 °F - 33.1 °F 83% 30.20 in 10.0 mi Calm Calm - N/A   Clear
8:53 AM 45.0 °F - 36.0 °F 71% 30.20 in 10.0 mi Calm Calm - N/A   Clear
9:53 AM 48.9 °F - 34.0 °F 56% 30.19 in 10.0 mi Calm Calm - N/A   Clear
10:53 AM 54.0 °F - 28.0 °F 37% 30.19 in 10.0 mi Variable 3.5 mph - N/A   Clear
11:53 AM 59.0 °F - 28.9 °F 32% 30.17 in 10.0 mi NNW 10.4 mph 17.3 mph N/A   Clear
12:53 PM 61.0 °F - 32.0 °F 34% 30.15 in 10.0 mi Variable 3.5 mph - N/A   Clear
1:53 PM 64.0 °F - 33.1 °F 31% 30.14 in 10.0 mi NNW 12.7 mph 17.3 mph N/A   Clear
2:53 PM 64.0 °F - 34.0 °F 33% 30.13 in 10.0 mi NNW 13.8 mph - N/A   Clear
3:53 PM 62.1 °F - 35.1 °F 37% 30.13 in 10.0 mi NNW 20.7 mph 26.5 mph N/A   Mostly Cloudy
4:53 PM 59.0 °F - 36.0 °F 42% 30.15 in 10.0 mi NNW 21.9 mph 27.6 mph N/A   Scattered Clouds
5:53 PM 59.0 °F - 36.0 °F 42% 30.16 in 10.0 mi NNW 25.3 mph 29.9 mph N/A   Scattered Clouds
6:53 PM 57.0 °F - 36.0 °F 45% 30.17 in 10.0 mi NNW 13.8 mph - N/A   Partly Cloudy
7:53 PM 53.1 °F - 37.0 °F 55% 30.16 in 10.0 mi NW 10.4 mph - N/A   Clear
8:53 PM 48.9 °F - 37.0 °F 64% 30.17 in 10.0 mi West 4.6 mph - N/A   Clear
9:53 PM 46.0 °F - 37.0 °F 71% 30.18 in 10.0 mi Calm Calm - N/A   Clear
10:53 PM 37.9 °F 34.4 °F 33.1 °F 83% 30.18 in 10.0 mi South 4.6 mph - N/A   Clear
11:53 PM 42.1 °F 40.2 °F 36.0 °F 79% 30.16 in 10.0 mi WSW 3.5 mph - N/A   Clear